When you browse on this site, cookies collect data to enhance your experience and personalize the content and advertising you see.
Visit our Privacy Policy to learn more. By continuing to use the site, you agree to this use of cookies and data.
  • In Belgium
  • List of Countries
  • For 7 days
  • Water Temperature
  • Satellite Maps
  • Weather Map
  • Weather Widgets
  • user-avatar
    Login

    Hourly Weather Zhihino

    Today, 22 March, Friday

    Time Temperature Precipitation Wind Pressure Humidity
    00:00 -2°C° 0 mm 3 mps 745 mmHg 94%
    01:00 -2°C° 0 mm 3 mps 744 mmHg 94%
    02:00 -1°C° 0 mm 3 mps 743 mmHg 94%
    03:00 -2°C° 0.3 mm 4 mps 742 mmHg 94%
    04:00 -2°C° 0.3 mm 4 mps 741 mmHg 93%
    05:00 -2°C° 0.3 mm 4 mps 740 mmHg 93%
    06:00 -1°C° 1.2 mm 4 mps 739 mmHg 93%
    07:00 -1°C° 1.2 mm 4 mps 738 mmHg 93%
    08:00 -1°C° 0 mm 4 mps 737 mmHg 94%
    09:00 -1°C° 0.8 mm 5 mps 737 mmHg 92%
    10:00 -2°C° 0.8 mm 6 mps 737 mmHg 91%
    11:00 -1°C° 0.8 mm 7 mps 738 mmHg 89%
    12:00 -2°C° 0.2 mm 7 mps 738 mmHg 87%
    13:00 -2°C° 0.2 mm 7 mps 739 mmHg 84%
    14:00 -2°C° 0.2 mm 7 mps 739 mmHg 82%
    15:00 -2°C° 0 mm 7 mps 740 mmHg 81%
    16:00 -2°C° 0 mm 7 mps 740 mmHg 81%
    17:00 -2°C° 0 mm 6 mps 741 mmHg 80%
    18:00 -3°C° 0.1 mm 6 mps 741 mmHg 82%
    19:00 -3°C° 0.1 mm 6 mps 742 mmHg 84%
    20:00 -3°C° 0.1 mm 6 mps 742 mmHg 86%
    21:00 -3°C° 0.1 mm 6 mps 743 mmHg 87%
    22:00 -3°C° 0.1 mm 6 mps 744 mmHg 89%
    23:00 -2°C° 0.1 mm 6 mps 745 mmHg 90%

    Tomorrow, 23 March, Saturday

    Time Temperature Precipitation Wind Pressure Humidity
    00:00 -1°C° 0 mm 5 mps 746 mmHg 91%
    01:00 -1°C° 0 mm 4 mps 747 mmHg 92%
    02:00 -1°C° 0 mm 4 mps 748 mmHg 93%
    03:00 -2°C° 0 mm 4 mps 748 mmHg 94%
    04:00 -1°C° 0 mm 3 mps 749 mmHg 94%
    05:00 -1°C° 0 mm 3 mps 750 mmHg 95%
    06:00 -1°C° 0 mm 2 mps 750 mmHg 95%
    07:00 -1°C° 0 mm 2 mps 751 mmHg 96%
    08:00 -1°C° 0 mm 2 mps 752 mmHg 97%
    09:00 +1°C° 0 mm 2 mps 752 mmHg 97%
    10:00 +2°C° 0 mm 1 mps 752 mmHg 96%
    11:00 +3°C° 0 mm 1 mps 752 mmHg 96%
    12:00 +3°C° 0 mm 1 mps 752 mmHg 95%
    13:00 +3°C° 0 mm 1 mps 752 mmHg 94%
    14:00 +2°C° 0 mm 0 mps 751 mmHg 93%
    15:00 +3°C° 0 mm 1 mps 751 mmHg 92%
    16:00 +3°C° 0 mm 1 mps 751 mmHg 92%
    17:00 +2°C° 0 mm 1 mps 750 mmHg 91%
    18:00 +1°C° 0 mm 2 mps 750 mmHg 91%
    19:00 +1°C° 0 mm 2 mps 750 mmHg 91%
    20:00 -1°C° 0 mm 3 mps 749 mmHg 90%
    21:00 -1°C° 0 mm 3 mps 749 mmHg 90%
    22:00 -2°C° 0 mm 4 mps 748 mmHg 89%
    23:00 -2°C° 0 mm 4 mps 747 mmHg 89%

    Day after tomorrow, 24 March, Sunday

    Time Temperature Precipitation Wind Pressure Humidity
    00:00 -2°C° 0 mm 4 mps 746 mmHg 88%
    01:00 -2°C° 0 mm 5 mps 745 mmHg 88%
    02:00 -2°C° 0 mm 5 mps 745 mmHg 87%
    03:00 -2°C° 0.5 mm 5 mps 744 mmHg 88%
    04:00 -2°C° 0.5 mm 5 mps 743 mmHg 90%
    05:00 -2°C° 0.5 mm 5 mps 742 mmHg 91%
    06:00 -1°C° 0.1 mm 5 mps 742 mmHg 92%
    07:00 -1°C° 0.1 mm 4 mps 741 mmHg 93%
    08:00 -1°C° 0.1 mm 4 mps 741 mmHg 94%
    09:00 0°C° 0 mm 4 mps 741 mmHg 92%
    10:00 +2°C° 0 mm 3 mps 741 mmHg 91%
    11:00 +2°C° 0 mm 3 mps 740 mmHg 89%
    12:00 +1°C° 0.2 mm 4 mps 740 mmHg 85%
    13:00 +1°C° 0.2 mm 4 mps 740 mmHg 81%
    14:00 +1°C° 0.2 mm 4 mps 740 mmHg 78%
    15:00 +1°C° 0.1 mm 4 mps 740 mmHg 77%
    16:00 0°C° 0.1 mm 4 mps 740 mmHg 77%
    17:00 0°C° 0.1 mm 3 mps 740 mmHg 76%
    18:00 0°C° 0 mm 3 mps 740 mmHg 78%
    19:00 -1°C° 0 mm 3 mps 740 mmHg 80%
    20:00 -1°C° 0 mm 3 mps 740 mmHg 82%
    21:00 -2°C° 0 mm 3 mps 740 mmHg 83%
    22:00 -2°C° 0 mm 3 mps 740 mmHg 84%
    23:00 -2°C° 0 mm 3 mps 739 mmHg 85%

    25 March, Monday

    Time Temperature Precipitation Wind Pressure Humidity
    00:00 -2°C° 0 mm 3 mps 739 mmHg 85%
    01:00 -2°C° 0 mm 3 mps 739 mmHg 86%
    02:00 -4°C° 0 mm 3 mps 739 mmHg 86%
    03:00 -2°C° 0 mm 3 mps 739 mmHg 86%
    04:00 -2°C° 0 mm 3 mps 738 mmHg 86%
    05:00 -3°C° 0 mm 4 mps 738 mmHg 86%
    06:00 -3°C° 0 mm 4 mps 738 mmHg 85%
    07:00 -2°C° 0 mm 4 mps 738 mmHg 84%
    08:00 -2°C° 0 mm 4 mps 738 mmHg 83%
    09:00 -1°C° 0 mm 4 mps 738 mmHg 82%
    10:00 -1°C° 0 mm 4 mps 738 mmHg 82%
    11:00 0°C° 0 mm 4 mps 738 mmHg 82%
    12:00 0°C° 0.1 mm 4 mps 738 mmHg 82%
    13:00 +1°C° 0.1 mm 3 mps 739 mmHg 82%
    14:00 +1°C° 0.1 mm 3 mps 739 mmHg 83%
    15:00 +1°C° 0 mm 3 mps 739 mmHg 84%
    16:00 +2°C° 0 mm 2 mps 739 mmHg 86%
    17:00 +1°C° 0 mm 2 mps 739 mmHg 87%
    18:00 +1°C° 0 mm 2 mps 739 mmHg 88%
    19:00 +1°C° 0 mm 1 mps 740 mmHg 89%
    20:00 +1°C° 0 mm 1 mps 740 mmHg 90%
    21:00 +1°C° 0.6 mm 1 mps 740 mmHg 91%
    22:00 +1°C° 0.6 mm 1 mps 740 mmHg 93%
    23:00 +1°C° 0.6 mm 1 mps 740 mmHg 94%

    26 March, Tuesday

    Time Temperature Precipitation Wind Pressure Humidity
    00:00 -2°C° 0.1 mm 2 mps 741 mmHg 94%
    01:00 -2°C° 0.1 mm 2 mps 741 mmHg 93%
    02:00 -3°C° 0.1 mm 2 mps 741 mmHg 93%
    03:00 -3°C° 0 mm 2 mps 742 mmHg 93%
    04:00 -4°C° 0 mm 3 mps 742 mmHg 92%
    05:00 -5°C° 0 mm 3 mps 742 mmHg 91%
    06:00 -4°C° 0 mm 3 mps 743 mmHg 88%
    07:00 -4°C° 0 mm 4 mps 743 mmHg 85%
    08:00 -4°C° 0 mm 4 mps 744 mmHg 82%
    09:00 -3°C° 0 mm 4 mps 744 mmHg 76%
    10:00 -3°C° 0 mm 4 mps 744 mmHg 71%
    11:00 -2°C° 0 mm 4 mps 744 mmHg 65%
    12:00 -2°C° 0.1 mm 4 mps 745 mmHg 66%
    13:00 -2°C° 0.1 mm 4 mps 745 mmHg 67%
    14:00 -2°C° 0.1 mm 4 mps 745 mmHg 67%
    15:00 -1°C° 0.1 mm 3 mps 745 mmHg 69%
    16:00 -2°C° 0.1 mm 3 mps 745 mmHg 71%
    17:00 -2°C° 0.1 mm 2 mps 745 mmHg 72%
    18:00 -3°C° 0 mm 2 mps 745 mmHg 75%
    19:00 -4°C° 0 mm 2 mps 745 mmHg 78%
    20:00 -4°C° 0 mm 2 mps 745 mmHg 81%
    21:00 -4°C° 0.4 mm 2 mps 745 mmHg 85%
    22:00 -5°C° 0.4 mm 3 mps 745 mmHg 89%
    23:00 -4°C° 0.4 mm 3 mps 745 mmHg 92%

    27 March, Wednesday

    Time Temperature Precipitation Wind Pressure Humidity
    00:00 -4°C° 0.2 mm 3 mps 745 mmHg 92%
    01:00 -4°C° 0.2 mm 3 mps 744 mmHg 92%
    02:00 -4°C° 0.2 mm 3 mps 744 mmHg 92%
    03:00 -4°C° 0.2 mm 3 mps 744 mmHg 92%
    04:00 -3°C° 0.2 mm 2 mps 744 mmHg 92%
    05:00 -3°C° 0.2 mm 2 mps 745 mmHg 92%
    06:00 -4°C° 0.2 mm 3 mps 745 mmHg 90%
    07:00 -2°C° 0.2 mm 3 mps 744 mmHg 88%
    08:00 -3°C° 0.2 mm 4 mps 744 mmHg 85%
    09:00 -3°C° 0.3 mm 4 mps 744 mmHg 85%
    10:00 -2°C° 0.3 mm 4 mps 744 mmHg 86%
    11:00 -2°C° 0.3 mm 4 mps 744 mmHg 86%
    12:00 0°C° 0.2 mm 3 mps 744 mmHg 86%
    13:00 0°C° 0.2 mm 3 mps 744 mmHg 85%
    14:00 0°C° 0.2 mm 3 mps 744 mmHg 85%
    15:00 +1°C° 0.2 mm 3 mps 744 mmHg 87%
    16:00 +1°C° 0.2 mm 3 mps 744 mmHg 89%
    17:00 +1°C° 0.2 mm 3 mps 743 mmHg 90%
    18:00 0°C° 0.2 mm 4 mps 743 mmHg 91%
    19:00 0°C° 0.2 mm 4 mps 744 mmHg 91%
    20:00 0°C° 0.2 mm 5 mps 744 mmHg 91%
    21:00 0°C° 0.1 mm 5 mps 743 mmHg 92%
    22:00 0°C° 0.1 mm 5 mps 743 mmHg 93%
    23:00 0°C° 0.1 mm 4 mps 743 mmHg 93%
    Show more